sat.trackr.live / text

‹ back to catalog

ONEWEB-0405

NORAD 50485 · 2021-132S

PAYLOAD ACTIVE UNKNOWN

§ Identity

Operator
Country
UK
Launch date
2021-12-27
Launch site
TYMSC
Launch vehicle
Mass (kg)
RCS (m²)

Purposes: comms

External: N2YO · Heavens-Above · Gunter

§ Orbital elements

Epoch: 2026-05-25T01:34:08.495040Z

Period
109.20 min
Inclination
87.9173°
Eccentricity
0.0001523
Mean motion
13.18685013 rev/d
Perigee alt
1,188.6 km
Apogee alt
1,190.9 km
Semi-major
7,567.9 km
B*
6.0311e-5
RAAN
340.0404°
Arg perigee
100.1066°
Mean anomaly
260.0238°
Rev number
21,894

§ Raw data

ONEWEB-04051 50485U 21132S   26145.06537610  .00000037  00000+0  60311-4 0  99912 50485  87.9173 340.0404 0001523 100.1066 260.0238 13.18685013218940

JSON: /api/v1/satellites/50485 · /tle

For live sub-satellite position, see the globe view (requires WebGL).

§ Visibility from observer

Set your observer location to see the next 7 days of passes ≥ 10°. The values pass through the URL so the page stays shareable.

No JS? Fill the form by hand. The geolocation button needs JavaScript.